TimeCDT,TemperatureF,Dew PointF,Humidity,Sea Level PressureIn,VisibilityMPH,Wind Direction,Wind SpeedMPH,Gust SpeedMPH,PrecipitationIn,Events,Conditions,WindDirDegrees,DateUTC
12:53 AM,34.0,27.0,75,30.30,10.0,NW,5.8,-,N/A,,Clear,320,2012-10-06 05:53:00
1:53 AM,35.1,28.0,76,30.32,10.0,West,4.6,-,N/A,,Clear,280,2012-10-06 06:53:00
2:53 AM,37.0,28.0,70,30.34,10.0,West,6.9,-,N/A,,Clear,260,2012-10-06 07:53:00
3:53 AM,37.9,28.0,68,30.33,10.0,NW,3.5,-,N/A,,Clear,310,2012-10-06 08:53:00
4:53 AM,35.6,28.4,75,30.31,10.0,NW,3.5,-,N/A,,Clear,320,2012-10-06 09:53:00
5:53 AM,34.0,27.0,75,30.34,10.0,NW,3.5,-,N/A,,Clear,310,2012-10-06 10:53:00
6:53 AM,34.0,27.0,75,30.35,10.0,NNW,5.8,-,N/A,,Clear,330,2012-10-06 11:53:00
7:53 AM,34.0,28.0,79,30.37,10.0,WNW,4.6,-,N/A,,Clear,300,2012-10-06 12:53:00
8:53 AM,37.4,28.4,70,30.36,10.0,NW,5.8,-,N/A,,Clear,320,2012-10-06 13:53:00
9:53 AM,37.9,26.1,62,30.40,10.0,NNW,6.9,-,N/A,,Clear,340,2012-10-06 14:53:00
10:53 AM,39.0,25.0,57,30.40,10.0,NNW,6.9,-,N/A,,Clear,340,2012-10-06 15:53:00
11:53 AM,41.0,25.0,53,30.40,10.0,NW,10.4,-,N/A,,Clear,320,2012-10-06 16:53:00
12:53 PM,43.0,25.0,49,30.39,10.0,NNW,5.8,-,N/A,,Clear,330,2012-10-06 17:53:00
1:53 PM,45.0,25.0,46,30.36,10.0,North,6.9,-,N/A,,Clear,350,2012-10-06 18:53:00
2:53 PM,46.0,25.0,44,30.32,10.0,NNW,10.4,16.1,N/A,,Partly Cloudy,330,2012-10-06 19:53:00
3:53 PM,48.0,25.0,41,30.31,10.0,NNW,8.1,-,N/A,,Mostly Cloudy,330,2012-10-06 20:53:00
4:53 PM,46.9,25.0,42,30.31,10.0,NNW,8.1,-,N/A,,Overcast,330,2012-10-06 21:53:00
5:53 PM,46.0,25.0,44,30.31,10.0,NNW,9.2,-,N/A,,Overcast,330,2012-10-06 22:53:00
6:53 PM,45.0,25.0,46,30.31,10.0,NW,4.6,-,N/A,,Mostly Cloudy,310,2012-10-06 23:53:00
7:53 PM,42.1,26.1,53,30.32,10.0,WNW,3.5,-,N/A,,Partly Cloudy,300,2012-10-07 00:53:00
8:53 PM,39.9,27.0,60,30.34,10.0,NW,3.5,-,N/A,,Partly Cloudy,310,2012-10-07 01:53:00
9:53 PM,39.0,27.0,62,30.34,10.0,Calm,Calm,-,N/A,,Scattered Clouds,0,2012-10-07 02:53:00
10:53 PM,37.0,26.1,65,30.34,10.0,Calm,Calm,-,N/A,,Clear,0,2012-10-07 03:53:00
11:53 PM,36.0,27.0,70,30.34,10.0,Calm,Calm,-,N/A,,Overcast,0,2012-10-07 04:53:00